Torna al catalogo

GALAXY 6

AttivoComunicazioniGEO
NORAD 20873·PAYLOAD·🇺🇸 United States

Lanciato Oct 12, 1990 da Guiana Space Centre

Loading…

TLE

AggiornatoSource: Space-Track

Epoca: Sep 14, 2026, 10:41 UTC

1 20873U 90091B   26257.44538215  .00000015  00000-0  00000-0 0  9999
2 20873  14.0849   9.3265 0006413 229.2710 158.6344  0.99756029 47346

Traccia GALAXY 6 in tempo reale con AllMySat

Download on the App Store